Skip Page Navigation
NASA JPL Caltech
NASA Logo - Jet Propulsion Laboratory + View the NASA Portal
+ Center for Near-Earth Object Studies
JPL Home Earth Solar System Stars & Galaxies Technology
JPL Solar System Dynamics
BODIES ORBITS EPHEMERIDES TOOLS PHYSICAL DATA DISCOVERY FAQ SITE MAP
IMPORTANT: The SSD Announcement email list is now available. Major changes are coming in the near future, including possible hostname and/or URL changes. To be notified of such changes, subscribe to this email list.

Please visit this page for more details.


JPL Small-Body Database Browser
Search: [ help ]  
27585 (2000 VN1)
Classification: Main-belt Asteroid          SPK-ID: 2027585
Ephemeris | Orbit Diagram | Orbital Elements | Mission Design | Physical Parameters | Discovery Circumstances | Close-Approach Data ]

[ show orbit diagram ]
Orbital Elements at Epoch 2458600.5 (2019-Apr-27.0) TDB
Reference: JPL 20 (heliocentric ecliptic J2000)
 Element Value Uncertainty (1-sigma)   Units 
e .2157165019998672 5.1151e-08  
a 2.546538639326639 1.1046e-08 au
q 1.997208231843595 1.3392e-07 au
i 3.401348339410671 3.6411e-06 deg
node 214.1026071360804 8.2762e-05 deg
peri 250.3119097170824 8.3064e-05 deg
M 190.5281100486671 1.0145e-05 deg
tp 2459299.245468124685
(2021-Mar-25.74546812)
4.4749e-05 TDB
period 1484.30733024293
4.06
9.6577e-06
2.644e-08
d
yr
n .2425373725945828 1.5781e-09 deg/d
Q 3.095869046809683 1.3429e-08 au
  Orbit Determination Parameters
   # obs. used (total)      1014  
   data-arc span      10218 days (27.98 yr)  
   first obs. used      1991-09-12  
   last obs. used      2019-09-03  
   planetary ephem.      DE431  
   SB-pert. ephem.      SB431-N16  
   condition code      0  
   norm. resid. RMS      .54589  
   source      ORB  
   producer      Otto Matic  
   solution date      2019-Sep-24 01:44:40  

Additional Information
 Earth MOID = 1.01725 au 
 Jupiter MOID = 2.07242 au 
 T_jup = 3.407 
[ show covariance matrix ]

Ephemeris | Orbit Diagram | Orbital Elements | Mission Design | Physical Parameters | Discovery Circumstances | Close-Approach Data ]

Physical Parameter Table
Parameter Symbol Value Units Sigma Reference Notes
absolute magnitude H 14.6   n/a MPO347728  

27585 (2000 VN1)          Discovered 2000-Nov-01 by LINEAR at Socorro
Reference: 20010804/Numbers.arcLast Updated: 2004-04-19

[ show close-approach data ]
Alternate Designations
 2000 VN1 = 1999 RW56 
Ephemeris | Orbit Diagram | Orbital Elements | Mission Design | Physical Parameters | Discovery Circumstances | Close-Approach Data ]
ABOUT SSD CREDITS/AWARDS PRIVACY/COPYRIGHT GLOSSARY LINKS
FirstGov 2019-Dec-16 08:16 UT
(server date/time)  
NASA Home Page
Site Manager:   Ryan S. Park
Webmaster  Alan B. Chamberlin